[[{"header":{"parameterUnit":"m.s-1","parameterCategory":1,"la1":30.2991,"la2":30.254,"lo1":-89.0895,"lo2":-89.0444,"dy":0.0017,"dx":0.0017,"nx":28,"ny":28,"refTime":"2024-07-18T09:00:00:Z","depth":0,"parameterNumber":2,"parameterNumberName":"U-component_of_WINDS"},"data":[0,0,0,0,0,0,0,0,0,0,0,0,0,0,0,0,0,0,0,0,0,0,0,0,0,0,0,0,0,0,0,0,0,0,0,0,0,0,0,0,0,0,0,0,0,0,0,0,0,0,0,0,0,0,0,0,0,0,-2.5413,-2.5414,0,-2.5435,-2.5435,-2.5435,-2.5396,-2.5395,-2.5394,-2.5393,-2.5414,-2.5416,-2.5418,0,0,0,0,0,0,0,0,0,0,0,0,0,-2.5337,-2.5339,-2.5413,-2.5414,-2.5414,-2.5435,-2.5435,-2.5435,-2.5397,-2.5395,-2.5394,-2.5392,-2.5413,-2.5416,-2.5418,0,0,0,0,0,0,0,0,0,0,0,0,0,-2.5366,-2.5339,-2.5413,-2.5397,-2.5396,-2.5435,-2.5435,-2.5436,-2.5397,-2.5395,-2.5393,-2.5391,-2.5413,-2.5415,-2.5418,-2.5474,0,0,-2.5426,-2.5427,0,0,0,0,0,0,0,0,-2.5364,-2.5369,-2.5399,-2.5398,-2.5397,-2.5411,-2.5416,-2.5448,-2.5398,-2.5397,-2.5393,-2.539,-2.5415,-2.5417,-2.5425,-2.5475,-2.5475,-2.5426,-2.5428,-2.5429,-2.543,0,0,0,0,0,0,0,-2.5362,-2.5367,-2.5422,-2.54,-2.5398,-2.5388,-2.539,-2.5422,-2.5416,-2.5397,-2.5394,-2.5397,-2.5414,-2.5423,-2.5425,-2.5476,-2.5426,-2.5429,-2.543,-2.5431,-2.557,-2.5572,0,0,0,0,0,0,-2.5362,-2.5366,-2.5421,-2.5423,-2.5375,-2.5391,-2.5393,-2.5409,-2.5416,-2.5415,-2.5398,-2.5395,-2.5419,-2.5422,-2.5426,-2.549,-2.5429,-2.5432,-2.5433,-2.5568,-2.557,-2.5573,0,0,0,0,0,0,-2.5361,-2.5368,-2.542,-2.5394,-2.5399,-2.5395,-2.5412,-2.541,-2.5419,-2.5417,-2.5416,-2.5409,-2.5418,-2.5422,-2.5462,-2.549,-2.5433,-2.5435,-2.5565,-2.5569,-2.5571,-2.562,0,0,0,0,0,0,-2.5359,-2.5367,-2.5389,-2.5394,-2.5401,-2.5456,-2.5414,-2.5412,-2.5424,-2.5419,-2.5427,-2.5426,-2.5417,-2.5458,-2.5464,-2.5493,-2.5437,-2.5563,-2.5567,-2.557,-2.5616,-2.5624,-2.5632,0,0,0,0,0,-2.5356,-2.5402,-2.539,-2.5397,-2.5428,-2.5458,-2.5462,-2.545,-2.5426,-2.5447,-2.5446,-2.5426,-2.5487,-2.5462,-2.5469,-2.5499,-2.5561,-2.5566,-2.557,-2.5612,-2.5623,-2.5631,0,0,0,0,0,0,-2.54,-2.5403,-2.5389,-2.5438,-2.5448,-2.5451,-2.5478,-2.5462,-2.5478,-2.5474,-2.5458,-2.546,-2.5502,-2.5505,-2.5478,-2.5552,-2.552,-2.5526,-2.5549,-2.5559,-2.5567,-2.5565,-2.544,0,0,0,0,0,-2.5416,-2.544,-2.5441,-2.5484,-2.5489,-2.5483,-2.5496,-2.5485,-2.5495,-2.5499,-2.55,-2.551,-2.5531,-2.5545,-2.5565,-2.5616,-2.5616,-2.564,-2.5648,-2.5655,-2.566,-2.5685,-2.5696,-2.5588,-2.5588,-2.5588,0,0,-2.5448,-2.5452,-2.5469,-2.5493,-2.5499,-2.5524,-2.5487,-2.5515,-2.5533,-2.5503,-2.554,-2.5542,-2.5551,-2.5596,-2.5616,-2.56,-2.569,-2.5661,-2.5666,-2.5667,-2.5691,-2.5701,-2.5711,-2.5591,-2.559,-2.559,0,0,-2.5519,-2.5525,-2.5561,-2.5568,-2.5578,-2.5573,-2.5582,-2.5587,-2.5587,-2.5623,-2.5601,-2.5622,-2.5659,-2.5667,-2.5675,-2.5748,-2.5729,-2.5755,-2.5796,-2.5821,-2.5829,-2.5837,-2.5861,-2.587,-2.576,-2.576,-2.576,0,-2.5557,-2.5594,-2.5581,-2.5611,-2.5621,-2.5595,-2.563,-2.5638,-2.5654,-2.5662,-2.5643,-2.5688,-2.5693,-2.5738,-2.5756,-2.5765,-2.5773,-2.5753,-2.5829,-2.5837,-2.5843,-2.5866,-2.5876,-2.5763,-2.5763,-2.5762,-2.5762,0,-2.564,-2.5666,-2.5694,-2.5709,-2.5723,-2.5756,-2.5747,-2.5762,-2.5751,-2.5748,-2.5785,-2.579,-2.5809,-2.5819,-2.5809,-2.5863,-2.5852,-2.5832,-2.5798,-2.5857,-2.5878,-2.5887,-2.5767,-2.5766,-2.5765,-2.5765,0,0,-2.5739,-2.5746,-2.5757,-2.5763,-2.5772,-2.5791,-2.5822,-2.584,-2.5853,-2.5865,-2.589,-2.5921,-2.5902,-2.5912,-2.5902,-2.5924,-2.5979,-2.5901,-2.5901,-2.5914,-2.6038,-2.6052,-2.6063,-2.5967,-2.5969,-2.597,-2.6036,0,-2.5809,-2.5861,-2.585,-2.5902,-2.5924,-2.59,-2.5926,-2.5934,-2.5932,-2.5951,-2.5948,-2.597,-2.5944,-2.5949,-2.597,-2.5968,-2.6004,-2.5963,-2.5989,-2.599,-2.5986,-2.6074,-2.609,-2.6152,-2.6045,-2.6046,-2.6047,0,-2.5896,-2.5911,-2.5965,-2.5968,-2.5977,-2.6002,-2.6017,-2.6036,-2.6044,-2.604,-2.6051,-2.6036,-2.6065,-2.6032,-2.6072,-2.6045,-2.6055,-2.6055,-2.6058,-2.6058,-2.6022,-2.6076,-2.6171,-2.618,-2.6061,-2.606,-2.6059,0,-2.5962,-2.5995,-2.6031,-2.6037,-2.6042,-2.6059,-2.6063,-2.6069,-2.608,-2.6093,-2.61,-2.6117,-2.6126,-2.6139,-2.6129,-2.6106,-2.617,-2.6137,-2.6167,-2.6168,-2.6181,-2.618,-2.6278,-2.619,-2.619,-2.619,-2.6189,0,-2.6039,-2.6073,-2.606,-2.6082,-2.6118,-2.6104,-2.6141,-2.6141,-2.6146,-2.6167,-2.6147,-2.6167,-2.6153,-2.6172,-2.6165,-2.6198,-2.6202,-2.62,-2.6197,-2.6201,-2.6201,-2.6206,-2.6201,-2.6192,-2.6191,-2.6191,-2.6191,0,-2.6118,-2.6111,-2.6148,-2.615,-2.6151,-2.6178,-2.6179,-2.6199,-2.6195,-2.6222,-2.6227,-2.6221,-2.6242,-2.6233,-2.6256,-2.625,-2.6293,-2.6285,-2.629,-2.6287,-2.6318,-2.6315,-2.6421,-2.6434,-2.6339,-2.634,-2.6341,0,-2.6168,-2.6193,-2.6197,-2.6209,-2.6214,-2.6234,-2.6246,-2.6233,-2.6245,-2.6255,-2.6274,-2.6293,-2.6308,-2.6342,-2.6339,-2.6356,-2.6348,-2.6384,-2.635,-2.6352,-2.6346,-2.6345,-2.6346,-2.639,-2.6391,-2.6392,-2.6393,0,-2.6256,-2.6251,-2.6268,-2.6283,-2.6297,-2.6309,-2.6319,-2.633,-2.6317,-2.6332,-2.6353,-2.6364,-2.6387,-2.6405,-2.642,-2.6422,-2.6405,-2.6404,-2.6412,-2.6415,-2.6416,-2.6415,-2.6307,-2.6401,-2.64,-2.64,-2.6399,-2.6399,-2.6321,-2.6341,-2.6347,-2.6366,-2.6372,-2.6381,-2.64,-2.6397,-2.6415,-2.6431,-2.6423,-2.6447,-2.6453,-2.647,-2.6475,-2.6493,-2.6479,-2.6491,-2.6493,-2.6496,-2.6499,-2.6414,-2.6496,-2.6496,-2.6496,-2.6496,-2.6495,0,-2.6407,-2.6409,-2.6427,-2.644,-2.6455,-2.6438,-2.6448,-2.6461,-2.6482,-2.6489,-2.6504,-2.6527,-2.6545,-2.6543,-2.6559,-2.6574,-2.6567,-2.6579,-2.6577,-2.6577,-2.6512,-2.6503,-2.6584,-2.6584,-2.6584,-2.6584,-2.6584,-2.6584,-2.6453,-2.6486,-2.6482,-2.6517,-2.6519,-2.6542,-2.6548,-2.6557,-2.6562,-2.6589,-2.6603,-2.6602,-2.6605,-2.6621,-2.6636,-2.6635,-2.6642,-2.6656,-2.6652,-2.6591,-2.6582,-2.6574,-2.6565,-2.6658,-2.6658,-2.6716,-2.6716,-2.6717]},{"header":{"parameterUnit":"m.s-1","parameterCategory":1,"la1":30.2991,"la2":30.254,"lo1":-89.0895,"lo2":-89.0444,"dy":0.0017,"dx":0.0017,"nx":28,"ny":28,"refTime":"2024-07-18T09:00:00:Z","depth":0,"parameterNumber":3,"parameterNumberName":"V-component_of_WINDS"},"data":[0,0,0,0,0,0,0,0,0,0,0,0,0,0,0,0,0,0,0,0,0,0,0,0,0,0,0,0,0,0,0,0,0,0,0,0,0,0,0,0,0,0,0,0,0,0,0,0,0,0,0,0,0,0,0,0,0,0,2.1016,2.1016,0,2.0976,2.0976,2.0975,2.0883,2.0881,2.0879,2.0878,2.084,2.084,2.0841,0,0,0,0,0,0,0,0,0,0,0,0,0,2.1017,2.1018,2.1016,2.1016,2.1015,2.0976,2.0976,2.0975,2.0883,2.0881,2.0879,2.0877,2.0839,2.084,2.0841,0,0,0,0,0,0,0,0,0,0,0,0,0,2.1001,2.1018,2.1016,2.0965,2.096,2.0976,2.0976,2.0975,2.0884,2.0881,2.0878,2.0876,2.0839,2.084,2.0841,2.0906,0,0,2.0845,2.0845,0,0,0,0,0,0,0,0,2.1002,2.1001,2.0973,2.0968,2.0963,2.0932,2.0962,2.0952,2.0885,2.0913,2.0877,2.0874,2.0873,2.0871,2.087,2.0904,2.0902,2.0845,2.0846,2.0846,2.0847,0,0,0,0,0,0,0,2.1003,2.1002,2.1001,2.0973,2.0966,2.0945,2.0939,2.096,2.091,2.091,2.0903,2.09,2.087,2.0869,2.0868,2.0902,2.0845,2.0846,2.0847,2.0847,2.0988,2.099,0,0,0,0,0,0,2.1011,2.1004,2.1002,2.0999,2.0976,2.0947,2.0941,2.0945,2.0909,2.0901,2.0902,2.0896,2.0868,2.0867,2.0867,2.094,2.0846,2.0847,2.0848,2.0985,2.0988,2.0991,0,0,0,0,0,0,2.1012,2.1012,2.1003,2.1,2.0997,2.095,2.0955,2.0945,2.0945,2.0903,2.0894,2.0911,2.0866,2.0865,2.0897,2.0937,2.0848,2.0849,2.0981,2.0986,2.099,2.1087,0,0,0,0,0,0,2.1012,2.1013,2.1036,2.1001,2.0997,2.1033,2.0957,2.0947,2.0946,2.0937,2.0908,2.0901,2.0864,2.0895,2.0898,2.0937,2.085,2.0977,2.0983,2.0988,2.108,2.1094,2.1106,0,0,0,0,0,2.1012,2.1065,2.1038,2.1038,2.1025,2.1036,2.1034,2.0989,2.095,2.0974,2.0947,2.0902,2.0933,2.0899,2.0901,2.0942,2.0974,2.0981,2.0988,2.1074,2.1091,2.1106,0,0,0,0,0,0,2.1107,2.106,2.1028,2.1071,2.1058,2.102,2.1048,2.1009,2.1008,2.0999,2.0945,2.0939,2.0979,2.0963,2.0927,2.1002,2.0946,2.0954,2.1011,2.1027,2.104,2.1043,2.0851,0,0,0,0,0,2.1133,2.1145,2.1103,2.1145,2.114,2.1096,2.1099,2.1065,2.105,2.1044,2.102,2.1008,2.1014,2.102,2.1024,2.1077,2.107,2.1106,2.112,2.1131,2.1138,2.1165,2.1181,2.1014,2.1014,2.1014,0,0,2.1187,2.1162,2.1173,2.1164,2.1149,2.1164,2.1092,2.111,2.112,2.1047,2.1075,2.1057,2.104,2.1083,2.1101,2.1071,2.1182,2.1139,2.1149,2.1149,2.1174,2.119,2.1204,2.1019,2.1018,2.1017,0,0,2.1292,2.1274,2.1307,2.1295,2.1274,2.1244,2.1252,2.122,2.1205,2.1232,2.1178,2.119,2.1203,2.1193,2.119,2.1292,2.1251,2.1295,2.1364,2.1392,2.1405,2.1417,2.1453,2.1467,2.1302,2.1302,2.1303,0,2.1361,2.1379,2.133,2.1351,2.1349,2.1283,2.1316,2.1307,2.1289,2.129,2.1257,2.1272,2.1256,2.1296,2.1321,2.132,2.1328,2.1298,2.1407,2.1418,2.1428,2.1462,2.1476,2.1308,2.1307,2.1307,2.1306,0,2.1466,2.148,2.1509,2.1492,2.1493,2.1521,2.1477,2.1484,2.1451,2.1425,2.1454,2.1433,2.1431,2.1438,2.1407,2.1474,2.1457,2.1417,2.1359,2.145,2.1482,2.1494,2.1316,2.1314,2.1312,2.1311,0,0,2.1629,2.1585,2.1596,2.1588,2.1561,2.1571,2.1596,2.1594,2.1601,2.1592,2.1612,2.1625,2.1587,2.1584,2.155,2.1575,2.1657,2.1531,2.153,2.1556,2.1731,2.1761,2.1777,2.163,2.1632,2.1634,2.1732,0,2.1727,2.1766,2.1723,2.1771,2.1784,2.1722,2.1744,2.173,2.1707,2.1715,2.169,2.17,2.1649,2.1647,2.1668,2.1643,2.1692,2.1635,2.1649,2.165,2.1655,2.1794,2.1826,2.192,2.1744,2.1746,2.1748,0,2.1847,2.1842,2.1892,2.1861,2.1865,2.1885,2.188,2.1888,2.1872,2.1853,2.185,2.1809,2.1833,2.1777,2.181,2.1772,2.1776,2.1764,2.1767,2.1766,2.1705,2.1797,2.1948,2.1963,2.1767,2.1765,2.1764,0,2.1961,2.1967,2.1997,2.1992,2.1958,2.1974,2.196,2.1941,2.1943,2.1939,2.1939,2.1938,2.1938,2.1939,2.19,2.1863,2.1938,2.1879,2.1924,2.1925,2.1942,2.1942,2.2096,2.1945,2.1945,2.1944,2.1944,0,2.2075,2.2108,2.2048,2.2067,2.2102,2.2053,2.2089,2.207,2.2054,2.2068,2.2015,2.2031,2.1978,2.1988,2.1958,2.199,2.199,2.1977,2.1968,2.1982,2.1983,2.1983,2.1975,2.1948,2.1947,2.1947,2.1946,0,2.2208,2.2169,2.2198,2.2163,2.2155,2.2183,2.2153,2.217,2.2144,2.2163,2.2165,2.2124,2.2133,2.2094,2.2097,2.2077,2.2125,2.2105,2.213,2.2124,2.2172,2.2168,2.2331,2.235,2.2187,2.2189,2.219,0,2.2284,2.2307,2.2275,2.228,2.2269,2.2279,2.228,2.2233,2.2236,2.222,2.2239,2.2244,2.2245,2.2263,2.2234,2.2236,2.2217,2.2274,2.2217,2.2229,2.2218,2.2217,2.2219,2.2286,2.2288,2.2289,2.2291,0,2.2421,2.2401,2.2404,2.2401,2.2403,2.2399,2.2391,2.2399,2.2348,2.2355,2.2363,2.2364,2.2366,2.2372,2.2368,2.2356,2.2316,2.2309,2.232,2.2333,2.2346,2.234,2.2162,2.2305,2.2304,2.2303,2.2302,2.2301,2.2528,2.2546,2.2526,2.2531,2.252,2.2514,2.2528,2.2503,2.2509,2.2506,2.2479,2.2493,2.2477,2.2467,2.2459,2.247,2.2443,2.2458,2.2462,2.2467,2.2475,2.2345,2.2469,2.2468,2.2468,2.2468,2.2467,0,2.2663,2.2647,2.2652,2.2642,2.2647,2.2608,2.2597,2.2604,2.2616,2.2604,2.2606,2.2617,2.2622,2.2594,2.2596,2.261,2.2592,2.2612,2.2611,2.2609,2.2499,2.2489,2.2627,2.2627,2.2627,2.2627,2.2627,2.2627,2.2734,2.2763,2.274,2.2764,2.2748,2.276,2.2758,2.2752,2.2742,2.2755,2.2759,2.274,2.2722,2.2722,2.2726,2.2718,2.2721,2.2748,2.2734,2.2632,2.2616,2.2601,2.2592,2.2749,2.2749,2.2842,2.2843,2.2844]}]]